Lid_Strength_Index
1 1 0 0 0 0 1 4 10 2 -0 7 7 10 8 6 7 6 8 8 9 9 9 11 11 11 9 8 8 11 8 10 13 13 11 10 9 11 11 14 14 13 13 13
0 0 -0 -1 -1 -1 1 6 6 2 2 10 10 7 8 7 7 7 8 9 7 9 10 12 10 9 9 8 9 9 10 11 14 14 12 11 12 11 10 11 12 13 14 12
-0 -1 -1 -1 -2 -2 1 5 9 6 4 5 8 9 9 10 7 7 7 8 7 9 11 10 10 11 11 9 8 5 7 10 11 13 12 10 13 12 11 11 13 13 13 12
-0 -1 -1 -1 -2 -2 1 5 7 6 10 8 7 7 8 10 10 7 7 9 8 10 12 12 11 11 11 10 8 8 9 12 11 11 11 11 11 12 12 12 11 13 11 12
-1 -1 -1 -1 -1 -1 3 7 7 5 7 6 7 7 9 9 8 8 9 11 10 8 11 10 11 13 12 11 9 10 9 11 11 12 12 12 12 12 11 11 11 11 11 12
-2 -1 -2 -2 -2 -1 4 3 2 5 7 7 9 9 8 8 7 6 6 9 9 9 8 6 7 9 10 10 12 11 10 11 13 13 12 12 14 12 12 11 10 10 12 10
-2 -2 -1 -1 -1 -0 2 2 3 7 10 8 8 8 7 7 7 8 6 6 9 7 5 5 5 7 9 10 11 10 11 11 11 13 13 16 11 9 9 10 10 9 9 9
-1 -1 -1 -1 -1 -1 1 1 3 6 9 7 7 7 7 6 6 7 7 6 4 4 7 11 12 12 12 12 11 10 10 10 12 14 15 12 12 12 11 11 10 8 9 9
-1 0 -1 -1 -1 -1 0 1 0 4 8 8 6 7 6 8 9 8 7 5 4 5 9 12 15 15 13 15 13 12 11 11 11 13 14 16 10 9 8 8 11 6 7 8
-1 -1 -1 -1 -1 -2 -0 1 -0 3 8 5 5 7 8 6 7 9 7 7 6 5 11 14 14 14 10 14 15 14 14 13 13 12 13 12 9 9 8 12 10 6 7 7
-1 -1 -1 -1 -1 -1 -0 1 -1 3 6 5 4 4 6 6 6 10 7 8 8 9 12 13 12 12 12 11 10 11 13 13 13 12 13 14 10 10 10 7 7 7 7 7
-1 -1 -1 -1 -1 -1 -1 2 -0 -0 4 5 2 2 2 3 3 6 6 8 9 8 11 11 11 12 10 11 14 10 13 10 11 10 11 8 9 7 7 7 7 7 7 7
-1 -1 -1 -1 -1 -1 -1 1 1 2 5 5 5 5 2 1 1 1 8 6 5 7 5 9 10 12 8 12 11 10 10 9 10 10 8 9 9 8 8 7 7 7 7 7
-1 -1 -1 -1 -1 -1 -1 1 1 2 7 9 7 1 3 1 1 2 2 4 4 4 5 8 10 12 7 9 8 9 8 9 9 10 9 9 9 8 7 7 7 7 7 6
-1 -1 -1 -1 -1 -1 -1 0 0 0 5 9 8 3 2 1 2 3 3 4 5 6 8 9 11 8 8 8 8 9 8 9 9 10 7 7 6 7 7 7 7 7 7 7
-1 -1 -1 -1 -1 -1 1 5 1 -0 1 6 10 3 4 3 3 3 4 4 5 6 8 9 7 5 8 11 11 7 7 7 6 7 6 6 6 7 7 6 6 6 6 6
-1 -1 -1 -1 -1 -0 4 5 2 -0 0 6 9 8 4 3 4 4 5 4 5 6 7 9 8 7 7 10 12 7 7 7 7 6 6 7 8 6 7 6 5 5 6 5
-1 -1 -1 -1 -1 0 3 1 -0 -0 3 5 10 9 7 4 7 8 5 7 6 7 8 7 9 8 8 12 8 7 7 7 7 7 7 7 6 6 7 6 5 6 6 6
-1 -1 -1 0 2 4 3 -1 -1 -0 3 9 9 10 11 5 6 6 7 6 10 6 10 9 8 10 12 9 8 6 6 6 6 6 6 7 8 7 7 7 7 6 6 6
-0 0 3 6 3 -0 0 2 5 5 6 6 9 7 9 6 7 8 8 8 10 12 10 7 11 11 7 6 5 5 5 5 5 6 7 8 8 8 7 7 7 6 5 6
2 4 6 2 0 2 5 8 9 8 10 7 7 7 8 5 9 9 7 10 10 14 10 11 12 12 7 5 5 5 5 5 5 5 5 5 7 7 7 7 7 6 5 6
2 2 3 2 5 7 9 10 9 9 10 7 8 8 6 6 5 8 8 11 10 14 9 12 13 8 6 5 5 6 5 6 6 5 6 6 6 7 6 6 6 6 6 5
1 4 6 7 8 11 12 13 12 11 8 7 7 9 7 6 6 8 9 12 12 8 13 12 9 7 6 5 5 5 4 6 6 6 5 6 7 7 6 6 6 5 6 6
5 8 11 10 11 10 9 9 8 7 6 7 7 8 9 7 9 9 12 10 10 13 15 12 8 7 7 6 6 5 5 5 6 6 6 6 7 7 7 6 6 6 6 6
7 8 11 10 7 7 7 6 7 6 5 6 7 8 8 10 11 10 10 13 14 13 11 9 7 7 7 7 6 6 5 4 4 4 6 7 7 7 8 7 6 6 6 6
7 8 9 7 8 8 7 7 7 5 6 6 7 10 11 12 11 12 13 13 13 11 8 7 7 7 6 7 7 7 6 6 5 5 5 6 7 7 7 7 7 7 6 6
8 9 7 7 7 8 7 7 6 4 7 10 9 12 12 10 12 13 10 12 9 7 7 6 6 8 7 7 8 8 8 8 8 6 6 6 6 6 7 8 8 7 7 6